Torna al catalogo

STARLINK-32292

AttivoComunicazioniVLEO
NORAD 61889·PAYLOAD·🇺🇸 United States

Lanciato Nov 9, 2024 da Vandenberg Space Force Base

Loading…

Prossimi Passaggi (prossime 24 ore)

TLE

AggiornatoSource: CelesTrak SupGP

Epoca: Sep 15, 2026, 02:15 UTC

1 61889C 24204R   26258.09423611  .00062164  00000+0  18364-2 0  2583
2 61889  53.1579 323.1173 0001199  95.6940 328.7450 15.34363980    19

Traccia STARLINK-32292 in tempo reale con AllMySat

Download on the App Store